Location: Nag� el Ma?a??a
(24.0667°N, 32.8833°E)
Time: 17:02:21
(UTC+00:00)

ADEOS - Pass Details

Date: 25 September 2021
Orbit: 792 x 795 km, 98.9° (Epoch: 16 October)

Event Time Altitude Azimuth Distance (km) Brightness Sun altitude
Rises 02:55:12 0° 13° (NNE) 3,288 7.0 -10.6°
Reaches altitude 10° 02:57:31 10° 14° (NNE) 2,357 6.3 -10.1°
Maximum altitude 03:02:44 84° 103° (ESE) 799 3.7 -8.9°
Drops below altitude 10° 03:07:56 10° 192° (SSW) 2,349 5.9 -7.7°
Sets 03:10:15 0° 192° (SSW) 3,276 6.6 -7.2°
